EN

Hourly Weather Ladakh Range

Today, 25 July, Sunday

Time Temperature Precipitation Wind Pressure Humidity
00:00 +15°C° 0 mm 2 mps 432 mmHg 40%
01:00 +15°C° 0 mm 2 mps 431 mmHg 42%
02:00 +15°C° 0 mm 2 mps 431 mmHg 43%
03:00 +14°C° 0 mm 1 mps 431 mmHg 45%
04:00 +14°C° 0 mm 1 mps 431 mmHg 46%
05:00 +14°C° 0 mm 1 mps 431 mmHg 47%
06:00 +14°C° 0 mm 1 mps 431 mmHg 46%
07:00 +14°C° 0 mm 1 mps 432 mmHg 46%
08:00 +15°C° 0 mm 1 mps 432 mmHg 45%
09:00 +16°C° 0 mm 1 mps 432 mmHg 43%
10:00 +18°C° 0 mm 1 mps 433 mmHg 40%
11:00 +17°C° 0 mm 2 mps 433 mmHg 38%
12:00 +18°C° 0 mm 2 mps 433 mmHg 37%
13:00 +18°C° 0 mm 2 mps 433 mmHg 37%
14:00 +18°C° 0 mm 2 mps 433 mmHg 37%
15:00 +19°C° 0 mm 2 mps 433 mmHg 35%
16:00 +19°C° 0 mm 2 mps 433 mmHg 34%
17:00 +20°C° 0 mm 2 mps 433 mmHg 32%
18:00 +19°C° 0 mm 2 mps 433 mmHg 34%
19:00 +19°C° 0 mm 2 mps 433 mmHg 35%
20:00 +18°C° 0 mm 2 mps 432 mmHg 37%
21:00 +18°C° 0.1 mm 2 mps 432 mmHg 40%
22:00 +17°C° 0.1 mm 2 mps 432 mmHg 43%
23:00 +16°C° 0.1 mm 2 mps 432 mmHg 46%

Tomorrow, 26 July, Monday

Time Temperature Precipitation Wind Pressure Humidity
00:00 +16°C° 0.1 mm 2 mps 432 mmHg 49%
01:00 +15°C° 0.1 mm 2 mps 431 mmHg 51%
02:00 +15°C° 0.1 mm 1 mps 431 mmHg 53%
03:00 +14°C° 0 mm 2 mps 431 mmHg 54%
04:00 +14°C° 0 mm 2 mps 430 mmHg 55%
05:00 +13°C° 0 mm 2 mps 430 mmHg 56%
06:00 +14°C° 0 mm 2 mps 431 mmHg 51%
07:00 +15°C° 0 mm 2 mps 431 mmHg 47%
08:00 +15°C° 0 mm 2 mps 432 mmHg 43%
09:00 +16°C° 0 mm 2 mps 432 mmHg 39%
10:00 +17°C° 0 mm 2 mps 433 mmHg 35%
11:00 +19°C° 0 mm 2 mps 433 mmHg 31%
12:00 +20°C° 0 mm 2 mps 433 mmHg 28%
13:00 +20°C° 0 mm 2 mps 433 mmHg 25%
14:00 +21°C° 0 mm 2 mps 433 mmHg 22%
15:00 +22°C° 0 mm 3 mps 433 mmHg 21%
16:00 +22°C° 0 mm 3 mps 433 mmHg 19%
17:00 +22°C° 0 mm 3 mps 433 mmHg 18%
18:00 +21°C° 0 mm 3 mps 433 mmHg 20%
19:00 +21°C° 0 mm 3 mps 432 mmHg 22%
20:00 +20°C° 0 mm 3 mps 432 mmHg 23%
21:00 +19°C° 0 mm 2 mps 432 mmHg 25%
22:00 +19°C° 0 mm 2 mps 432 mmHg 28%
23:00 +18°C° 0 mm 2 mps 432 mmHg 30%

Day after tomorrow, 27 July, Tuesday

Time Temperature Precipitation Wind Pressure Humidity
00:00 +17°C° 0 mm 2 mps 431 mmHg 32%
01:00 +17°C° 0 mm 2 mps 431 mmHg 35%
02:00 +16°C° 0 mm 2 mps 430 mmHg 37%
03:00 +15°C° 0 mm 2 mps 430 mmHg 40%
04:00 +15°C° 0 mm 2 mps 430 mmHg 42%
05:00 +14°C° 0 mm 2 mps 430 mmHg 44%
06:00 +15°C° 0 mm 2 mps 430 mmHg 42%
07:00 +15°C° 0 mm 2 mps 430 mmHg 39%
08:00 +16°C° 0 mm 2 mps 431 mmHg 36%
09:00 +18°C° 0 mm 1 mps 431 mmHg 34%
10:00 +18°C° 0 mm 1 mps 431 mmHg 32%
11:00 +19°C° 0 mm 1 mps 431 mmHg 30%
12:00 +20°C° 0 mm 1 mps 431 mmHg 29%
13:00 +20°C° 0 mm 1 mps 431 mmHg 28%
14:00 +21°C° 0 mm 1 mps 431 mmHg 27%
15:00 +20°C° 0 mm 1 mps 431 mmHg 28%
16:00 +20°C° 0 mm 1 mps 430 mmHg 29%
17:00 +19°C° 0 mm 2 mps 430 mmHg 30%
18:00 +18°C° 0 mm 2 mps 430 mmHg 31%
19:00 +18°C° 0 mm 2 mps 430 mmHg 33%
20:00 +18°C° 0 mm 2 mps 430 mmHg 34%
21:00 +14°C° 0.9 mm 3 mps 430 mmHg 45%
22:00 +12°C° 0.9 mm 3 mps 429 mmHg 56%
23:00 +10°C° 0.9 mm 3 mps 429 mmHg 67%

28 July, Wednesday

Time Temperature Precipitation Wind Pressure Humidity
00:00 +9°C° 2.3 mm 2 mps 428 mmHg 72%
01:00 +8°C° 2.3 mm 2 mps 428 mmHg 77%
02:00 +8°C° 2.3 mm 1 mps 427 mmHg 82%
03:00 +8°C° 1.2 mm 1 mps 427 mmHg 81%
04:00 +8°C° 1.2 mm 1 mps 427 mmHg 81%
05:00 +8°C° 1.2 mm 1 mps 427 mmHg 81%
06:00 +8°C° 0.6 mm 1 mps 427 mmHg 81%
07:00 +8°C° 0.6 mm 1 mps 427 mmHg 81%
08:00 +8°C° 0.6 mm 1 mps 427 mmHg 81%
09:00 +9°C° 0.4 mm 1 mps 427 mmHg 78%
10:00 +8°C° 0.4 mm 2 mps 428 mmHg 76%
11:00 +9°C° 0.4 mm 2 mps 428 mmHg 73%
12:00 +9°C° 0.5 mm 2 mps 428 mmHg 73%
13:00 +9°C° 0.5 mm 2 mps 427 mmHg 72%
14:00 +9°C° 0.5 mm 2 mps 427 mmHg 72%
15:00 +9°C° 0.4 mm 2 mps 427 mmHg 73%
16:00 +9°C° 0.4 mm 2 mps 427 mmHg 74%
17:00 +9°C° 0.4 mm 2 mps 427 mmHg 75%
18:00 +9°C° 0.4 mm 2 mps 427 mmHg 76%
19:00 +8°C° 0.4 mm 2 mps 427 mmHg 77%
20:00 +8°C° 0.4 mm 2 mps 427 mmHg 78%
21:00 +9°C° 0.6 mm 1 mps 427 mmHg 79%
22:00 +9°C° 0.6 mm 1 mps 427 mmHg 80%
23:00 +8°C° 0.6 mm 1 mps 427 mmHg 81%

29 July, Thursday

Time Temperature Precipitation Wind Pressure Humidity
00:00 +8°C° 0.8 mm 1 mps 427 mmHg 81%
01:00 +8°C° 0.8 mm 1 mps 426 mmHg 81%
02:00 +8°C° 0.8 mm 1 mps 426 mmHg 81%
03:00 +8°C° 0.3 mm 1 mps 426 mmHg 80%
04:00 +8°C° 0.3 mm 1 mps 426 mmHg 80%
05:00 +8°C° 0.3 mm 1 mps 426 mmHg 80%
06:00 +8°C° 0.5 mm 1 mps 426 mmHg 79%
07:00 +8°C° 0.5 mm 1 mps 427 mmHg 78%
08:00 +8°C° 0.5 mm 1 mps 427 mmHg 77%
09:00 +9°C° 0.3 mm 1 mps 427 mmHg 74%
10:00 +9°C° 0.3 mm 2 mps 428 mmHg 71%
11:00 +9°C° 0.3 mm 2 mps 428 mmHg 68%
12:00 +10°C° 0.3 mm 2 mps 428 mmHg 64%
13:00 +12°C° 0.3 mm 2 mps 428 mmHg 61%
14:00 +12°C° 0.3 mm 1 mps 428 mmHg 58%
15:00 +13°C° 0.4 mm 1 mps 429 mmHg 55%
16:00 +13°C° 0.4 mm 1 mps 429 mmHg 52%
17:00 +14°C° 0.4 mm 1 mps 429 mmHg 49%
18:00 +14°C° 0.2 mm 1 mps 429 mmHg 50%
19:00 +14°C° 0.2 mm 1 mps 429 mmHg 51%
20:00 +13°C° 0.2 mm 1 mps 429 mmHg 52%
21:00 +13°C° 0.2 mm 1 mps 429 mmHg 53%
22:00 +13°C° 0.2 mm 1 mps 429 mmHg 55%
23:00 +12°C° 0.2 mm 1 mps 429 mmHg 56%

30 July, Friday

Time Temperature Precipitation Wind Pressure Humidity
00:00 +12°C° 0.4 mm 1 mps 428 mmHg 62%
01:00 +11°C° 0.4 mm 1 mps 428 mmHg 67%
02:00 +10°C° 0.4 mm 1 mps 427 mmHg 72%
03:00 +10°C° 0.8 mm 1 mps 427 mmHg 76%
04:00 +9°C° 0.8 mm 1 mps 427 mmHg 80%
05:00 +8°C° 0.8 mm 1 mps 426 mmHg 84%
06:00 +8°C° 1.1 mm 1 mps 427 mmHg 84%
07:00 +8°C° 1.1 mm 1 mps 427 mmHg 83%
08:00 +8°C° 1.1 mm 1 mps 427 mmHg 83%
09:00 +8°C° 0.3 mm 1 mps 427 mmHg 82%
10:00 +9°C° 0.3 mm 1 mps 428 mmHg 80%
11:00 +9°C° 0.3 mm 1 mps 428 mmHg 79%
12:00 +10°C° 0.2 mm 1 mps 428 mmHg 74%
13:00 +11°C° 0.2 mm 1 mps 428 mmHg 70%
14:00 +12°C° 0.2 mm 1 mps 429 mmHg 65%
15:00 +13°C° 0.1 mm 1 mps 429 mmHg 60%
16:00 +13°C° 0.1 mm 1 mps 429 mmHg 56%
17:00 +14°C° 0.1 mm 2 mps 429 mmHg 52%
18:00 +13°C° 0.5 mm 2 mps 429 mmHg 58%
19:00 +12°C° 0.5 mm 2 mps 428 mmHg 64%
20:00 +10°C° 0.5 mm 3 mps 428 mmHg 70%
21:00 +9°C° 2 mm 2 mps 428 mmHg 75%
22:00 +8°C° 2 mm 2 mps 428 mmHg 80%
23:00 +8°C° 2 mm 1 mps 427 mmHg 85%
Show more